Madison, MN

12:48 PM CDT on September 16, 2019 (GMT -0500)
Madison-Lac Qui Parle County

Weather History for KDXX - July, 2019

Change the Weather History Date:

Tuesday, July 16, 2019

  Actual Average (KAQP) Record (KAQP)
Temperature  
Mean Temperature 78 °F -  
Max Temperature 86 °F 80 °F 98 °F (2012)
Min Temperature 69 °F 60 °F 48 °F (2014)
Cooling Degree Days 12    
Growing Degree Days 28 (Base 50)    
Moisture  
Dew Point 70 °F    
Average Humidity 77    
Maximum Humidity 100    
Minimum Humidity 51    
Precipitation  
Precipitation 0.00 in - - ()
Sea Level Pressure  
Sea Level Pressure 29.87 in    
Wind  
Wind Speed 4 mph (NNE)    
Max Wind Speed 10 mph    
Max Gust Speed -    
Visibility 10 miles    
Events      
Averages and records for this station are not official NWS values.
T = Trace of Precipitation, MM = Missing Value Source: NWS Daily Summary

Daily Weather History Graph

Daily Weather History Graph

Search for Another Location

Airport or City:

Astronomy

Jul. 16, 2019 Rise Set
Actual Time 5:53 AM CDT 9:07 PM CDT
Civil Twilight 5:17 AM CDT 9:43 PM CDT
Nautical Twilight 4:30 AM CDT 10:29 PM CDT
Astronomical Twilight 3:33 AM CDT 11:26 PM CDT
Moon 9:15 PM CDT 5:31 AM CDT
Length of Visible Light 16h 26m
Length of Day
15h 14m
Full, 100% of the Moon is Illuminated
Jul 16
Full
Jul 16
Full
Jul 24
Last Quarter
Jul 31
New
Aug 7
First Quarter

Hourly Weather History & Observations

Time (CDT) Temp. Heat Index Dew Point Humidity Pressure Visibility Wind Dir Wind Speed Gust Speed Precip Events Conditions
12:15 AM 75.2 °F - 71.6 °F 89% 29.85 in 10.0 mi NW 3.5 mph - N/A   Clear
12:19 AM 75.2 °F - 71.6 °F 89% 29.85 in 10.0 mi NW 3.5 mph - N/A   Clear
12:38 AM 77.0 °F - 71.6 °F 83% 29.86 in 10.0 mi Calm Calm - N/A   Clear
12:55 AM 75.2 °F - 73.4 °F 94% 29.86 in 10.0 mi Calm Calm - N/A   Clear
1:15 AM 77.0 °F - 71.6 °F 83% 29.87 in 10.0 mi Calm Calm - N/A   Clear
1:16 AM 77.0 °F - 71.6 °F 83% 29.87 in 10.0 mi Calm Calm - N/A   Clear
1:35 AM 75.2 °F - 73.4 °F 94% 29.87 in 10.0 mi Calm Calm - N/A   Clear
1:58 AM 75.2 °F - 71.6 °F 89% 29.85 in 10.0 mi WNW 4.6 mph - N/A   Clear
2:17 AM 75.2 °F - 71.6 °F 89% 29.84 in 10.0 mi WNW 4.6 mph - N/A   Clear
2:36 AM 71.6 °F - 69.8 °F 94% 29.84 in 10.0 mi West 3.5 mph - N/A   Clear
2:55 AM 71.6 °F - 69.8 °F 94% 29.83 in 10.0 mi West 3.5 mph - N/A   Clear
2:56 AM 71.6 °F - 69.8 °F 94% 29.83 in 10.0 mi West 3.5 mph - N/A   Clear
3:15 AM 71.6 °F - 69.8 °F 94% 29.83 in 10.0 mi West 4.6 mph - N/A   Clear
3:20 AM 71.6 °F - 69.8 °F 94% 29.83 in 10.0 mi West 4.6 mph - N/A   Clear
3:37 AM 71.6 °F - 69.8 °F 94% 29.83 in 10.0 mi NW 5.8 mph - N/A   Clear
3:55 AM 71.6 °F - 69.8 °F 94% 29.82 in 10.0 mi NW 3.5 mph - N/A   Clear
4:15 AM 71.6 °F - 69.8 °F 94% 29.83 in 10.0 mi Calm Calm - N/A   Clear
4:35 AM 71.6 °F - 69.8 °F 94% 29.84 in 10.0 mi Calm Calm - N/A   Clear
4:36 AM 71.6 °F - 69.8 °F 94% 29.85 in 10.0 mi Calm Calm - N/A   Clear
4:58 AM 71.6 °F - 69.8 °F 94% 29.85 in 10.0 mi West 4.6 mph - N/A   Clear
5:17 AM 69.8 °F - 69.8 °F 100% 29.85 in 10.0 mi West 4.6 mph - N/A   Clear
5:36 AM 71.6 °F - 69.8 °F 94% 29.85 in 10.0 mi Calm Calm - N/A   Clear
5:55 AM 71.6 °F - 69.8 °F 94% 29.85 in 10.0 mi NW 4.6 mph - N/A   Clear
5:56 AM 71.6 °F - 69.8 °F 94% 29.85 in 10.0 mi NW 4.6 mph - N/A   Clear
6:15 AM 71.6 °F - 69.8 °F 94% 29.86 in 10.0 mi WNW 4.6 mph - N/A   Clear
6:19 AM 71.6 °F - 69.8 °F 94% 29.86 in 10.0 mi WNW 4.6 mph - N/A   Clear
6:37 AM 71.6 °F - 69.8 °F 94% 29.87 in 10.0 mi WNW 3.5 mph - N/A   Clear
6:56 AM 71.6 °F - 69.8 °F 94% 29.87 in 10.0 mi NW 3.5 mph - N/A   Clear
7:15 AM 71.6 °F - 69.8 °F 94% 29.86 in 10.0 mi NW 3.5 mph - N/A   Clear
7:16 AM 71.6 °F - 69.8 °F 94% 29.86 in 10.0 mi NW 4.6 mph - N/A   Clear
7:35 AM 73.4 °F - 71.6 °F 94% 29.87 in 10.0 mi NW 4.6 mph - N/A   Clear
7:36 AM 73.4 °F - 71.6 °F 94% 29.87 in 10.0 mi WNW 5.8 mph - N/A   Clear
7:59 AM 73.4 °F - 71.6 °F 94% 29.87 in 10.0 mi Calm Calm - N/A   Clear
8:16 AM 73.4 °F - 71.6 °F 94% 29.87 in 10.0 mi NW 3.5 mph - N/A   Clear
8:36 AM 73.4 °F - 71.6 °F 94% 29.88 in 10.0 mi North 4.6 mph - N/A   Clear
8:55 AM 75.2 °F - 71.6 °F 89% 29.89 in 10.0 mi North 4.6 mph - N/A   Clear
8:56 AM 75.2 °F - 71.6 °F 89% 29.89 in 10.0 mi North 5.8 mph - N/A   Clear
9:15 AM 75.2 °F - 71.6 °F 89% 29.89 in 10.0 mi North 5.8 mph - N/A   Clear
9:19 AM 75.2 °F - 71.6 °F 89% 29.89 in 10.0 mi North 6.9 mph - N/A   Clear
9:38 AM 77.0 °F - 71.6 °F 83% 29.89 in 10.0 mi North 8.1 mph - N/A   Clear
9:56 AM 78.8 °F - 71.6 °F 78% 29.88 in 10.0 mi NNE 8.1 mph - N/A   Clear
10:15 AM 78.8 °F - 69.8 °F 74% 29.89 in 10.0 mi NNE 8.1 mph - N/A   Clear
10:16 AM 78.8 °F - 69.8 °F 74% 29.89 in 10.0 mi NNE 8.1 mph - N/A   Clear
10:35 AM 80.6 °F 83.9 °F 69.8 °F 70% 29.89 in 10.0 mi NE 9.2 mph - N/A   Clear
10:36 AM 80.6 °F 83.9 °F 69.8 °F 70% 29.89 in 10.0 mi NE 10.4 mph - N/A   Clear
10:58 AM 82.4 °F 86.3 °F 69.8 °F 66% 29.90 in 10.0 mi NE 8.1 mph - N/A   Clear
11:17 AM 82.4 °F 86.3 °F 69.8 °F 66% 29.90 in 10.0 mi NE 9.2 mph - N/A   Clear
11:35 AM 80.6 °F 83.2 °F 68.0 °F 65% 29.90 in 10.0 mi NE 9.2 mph - N/A   Clear
11:55 AM 82.4 °F 86.3 °F 69.8 °F 66% 29.90 in 10.0 mi NE 9.2 mph - N/A   Clear
11:56 AM 82.4 °F 86.3 °F 69.8 °F 66% 29.90 in 10.0 mi NE 8.1 mph - N/A   Clear
12:15 PM 82.4 °F 85.4 °F 68.0 °F 62% 29.91 in 10.0 mi NE 8.1 mph - N/A   Clear
12:37 PM 82.4 °F 86.3 °F 69.8 °F 66% 29.91 in 10.0 mi ENE 8.1 mph - N/A   Clear
12:55 PM 82.4 °F 85.4 °F 68.0 °F 62% 29.90 in 10.0 mi NE 4.6 mph - N/A   Clear
1:15 PM 82.4 °F 84.6 °F 66.2 °F 58% 29.90 in 10.0 mi ENE 6.9 mph - N/A   Clear
1:35 PM 82.4 °F 84.6 °F 66.2 °F 58% 29.89 in 10.0 mi NE 5.8 mph - N/A   Clear
1:36 PM 82.4 °F 84.6 °F 66.2 °F 58% 29.89 in 10.0 mi NE 5.8 mph - N/A   Clear
1:59 PM 82.4 °F 85.4 °F 68.0 °F 62% 29.90 in 10.0 mi ENE 5.8 mph - N/A   Clear
2:16 PM 82.4 °F 85.4 °F 68.0 °F 62% 29.90 in 10.0 mi ENE 3.5 mph - N/A   Clear
2:36 PM 82.4 °F 86.3 °F 69.8 °F 66% 29.89 in 10.0 mi ENE 4.6 mph - N/A   Clear
2:55 PM 84.2 °F 88.4 °F 69.8 °F 62% 29.89 in 10.0 mi NNE 3.5 mph - N/A   Clear
3:15 PM 84.2 °F 87.3 °F 68.0 °F 58% 29.89 in 10.0 mi NE 5.8 mph - N/A   Clear
3:19 PM 84.2 °F 88.4 °F 69.8 °F 62% 29.89 in 10.0 mi NE 3.5 mph - N/A   Clear
3:37 PM 84.2 °F 86.6 °F 66.2 °F 55% 29.88 in 10.0 mi ENE 4.6 mph - N/A   Clear
3:56 PM 86.0 °F 88.2 °F 66.2 °F 51% 29.88 in 10.0 mi NE 5.8 mph - N/A   Clear
4:15 PM 86.0 °F 89.4 °F 68.0 °F 55% 29.88 in 10.0 mi NE 4.6 mph - N/A   Clear
4:16 PM 84.2 °F 86.6 °F 66.2 °F 55% 29.88 in 10.0 mi NE 3.5 mph - N/A   Clear
4:35 PM 86.0 °F 89.4 °F 68.0 °F 55% 29.88 in 10.0 mi NE 3.5 mph - N/A   Clear
4:36 PM 86.0 °F 89.4 °F 68.0 °F 55% 29.88 in 10.0 mi NE 3.5 mph - N/A   Clear
4:58 PM 86.0 °F 90.4 °F 69.8 °F 58% 29.88 in 10.0 mi NE 4.6 mph - N/A   Clear
5:16 PM 86.0 °F 90.4 °F 69.8 °F 58% 29.87 in 10.0 mi NNE 8.1 mph - N/A   Clear
5:36 PM 86.0 °F 90.4 °F 69.8 °F 58% 29.87 in 10.0 mi NE 4.6 mph - N/A   Clear
5:56 PM 86.0 °F 89.4 °F 68.0 °F 55% 29.87 in 7.0 mi ENE 4.6 mph - N/A   Clear
6:15 PM 86.0 °F 89.4 °F 68.0 °F 55% 29.87 in 10.0 mi NE 4.6 mph - N/A   Clear
6:19 PM 86.0 °F 89.4 °F 68.0 °F 55% 29.87 in 10.0 mi NE 4.6 mph - N/A   Clear
6:38 PM 86.0 °F 89.4 °F 68.0 °F 55% 29.87 in 10.0 mi NE 4.6 mph - N/A   Clear
6:55 PM 86.0 °F 90.4 °F 69.8 °F 58% 29.86 in 10.0 mi NNE 3.5 mph - N/A   Clear
7:15 PM 84.2 °F 88.4 °F 69.8 °F 62% 29.86 in 10.0 mi NE 4.6 mph - N/A   Clear
7:16 PM 84.2 °F 87.3 °F 68.0 °F 58% 29.86 in 10.0 mi NE 3.5 mph - N/A   Clear
7:35 PM 84.2 °F 88.4 °F 69.8 °F 62% 29.86 in 10.0 mi NE 4.6 mph - N/A   Clear
7:36 PM 84.2 °F 88.4 °F 69.8 °F 62% 29.86 in 10.0 mi NE 3.5 mph - N/A   Clear
7:59 PM 84.2 °F 88.4 °F 69.8 °F 62% 29.87 in 10.0 mi NE 3.5 mph - N/A   Clear
8:16 PM 82.4 °F 86.3 °F 69.8 °F 66% 29.87 in 10.0 mi NE 4.6 mph - N/A   Clear
8:36 PM 80.6 °F 83.9 °F 69.8 °F 70% 29.88 in 10.0 mi NNE 5.8 mph - N/A   Clear
8:55 PM 78.8 °F - 69.8 °F 74% 29.88 in 10.0 mi NE 6.9 mph - N/A   Clear
8:56 PM 78.8 °F - 69.8 °F 74% 29.89 in 10.0 mi NE 6.9 mph - N/A   Clear
9:15 PM 78.8 °F - 69.8 °F 74% 29.89 in 10.0 mi NE 6.9 mph - N/A   Clear
9:37 PM 78.8 °F - 68.0 °F 69% 29.89 in 10.0 mi NE 6.9 mph - N/A   Clear
9:56 PM 75.2 °F - 68.0 °F 78% 29.89 in 10.0 mi NE 5.8 mph - N/A   Clear
10:15 PM 75.2 °F - 69.8 °F 83% 29.89 in 10.0 mi East 4.6 mph - N/A   Clear
10:16 PM 75.2 °F - 69.8 °F 83% 29.89 in 10.0 mi East 4.6 mph - N/A   Clear
10:35 PM 75.2 °F - 69.8 °F 83% 29.89 in 10.0 mi ESE 4.6 mph - N/A   Clear
10:36 PM 75.2 °F - 69.8 °F 83% 29.90 in 10.0 mi ESE 4.6 mph - N/A   Clear
10:59 PM 75.2 °F - 69.8 °F 83% 29.89 in 10.0 mi Calm Calm - N/A   Clear
11:16 PM 75.2 °F - 69.8 °F 83% 29.89 in 10.0 mi Calm Calm - N/A   Clear
11:36 PM 75.2 °F - 69.8 °F 83% 29.87 in 10.0 mi SSE 4.6 mph - N/A   Clear
11:55 PM 77.0 °F - 69.8 °F 78% 29.89 in 10.0 mi West 4.6 mph - N/A   Clear